Location: Asheville, NC
(35.6000°N, 82.5500°W)
Time: 22:40:06

AO-85 - Pass Details

Date: 13 March 2018
Orbit: 504 x 781 km, 64.8° (Epoch: 15 March)

Event Time Altitude Azimuth Distance (km) Brightness Sun altitude
Rises 07:05:24 0° 349° (NNW) 3,117 ? -8.6°
Reaches altitude 10° 07:09:02 10° 16° (NNE) 2,247 ? -7.9°
Maximum altitude 07:11:32 13° 45° (NE) 2,042 ? -7.4°
Drops below altitude 10° 07:14:06 10° 74° (ENE) 2,299 ? -6.9°
Sets 07:17:52 0° 100° (E) 3,247 ? -6.1°
